Le nostre stazioni meteo in Italia

Pubblicità
Il mio iltempo24.it
Desenzano, Italia (16089): Temperatura & dewpoint: 25.05.2020 00:00:00 - 31.05.2020 00:00:00 (CEST)Desenzano, Italia (16089): velocità del vento: 25.05.2020 00:00:00 - 31.05.2020 00:00:00 (CEST)Desenzano, Italia (16089): direzione del vento: 25.05.2020 00:00:00 - 31.05.2020 00:00:00 (CEST)Desenzano, Italia (16089): reduced air pressure: 25.05.2020 00:00:00 - 31.05.2020 00:00:00 (CEST)Desenzano, Italia (16089): precipitazioni: 25.05.2020 00:00:00 - 31.05.2020 00:00:00 (CEST)
Data & Tempo tt [°C] td [°C] ff [km/h] ff [kn] dd ppp [hPa] rr [mm]
31.05.2020 00:00:00 - - - - - - -
30.05.2020 23:00:00 21,5 14,8 0 0 N 1016,1 -
30.05.2020 22:00:00 22,0 17,1 0 0 N 1015,6 -
30.05.2020 21:00:00 22,2 14,5 0 0 N 1014,9 -
30.05.2020 20:00:00 23,2 15,2 0 0 N 1014,5 0,0
30.05.2020 19:00:00 23,7 15,4 0 0 N 1014,4 -
30.05.2020 18:00:00 23,8 15,7 0 0 N 1014,7 -
30.05.2020 17:00:00 23,5 16,5 0 0 N 1015,1 -
30.05.2020 16:00:00 23,6 16,1 0 0 N 1015,2 -
30.05.2020 15:00:00 23,3 16,3 0 0 N 1015,6 -
30.05.2020 14:00:00 23,5 16,7 0 0 N 1016,0 0,0
30.05.2020 13:00:00 23,3 15,0 0 0 N 1016,4 -
30.05.2020 12:00:00 24,1 15,2 0 0 N 1016,9 -
30.05.2020 11:00:00 22,0 15,3 0 0 N 1017,3 -
30.05.2020 10:00:00 21,2 16,1 0 0 N 1017,5 -
30.05.2020 09:00:00 19,7 17,2 0 0 N 1017,8 -
30.05.2020 08:00:00 18,5 16,6 0 0 N 1017,9 0,0
30.05.2020 07:00:00 17,1 15,2 0 0 N 1018,0 -
30.05.2020 06:00:00 16,6 13,2 0 0 N 1018,1 -
30.05.2020 05:00:00 16,5 13,0 0 0 N 1018,4 -
30.05.2020 04:00:00 16,2 12,1 0 0 N 1018,6 -
30.05.2020 03:00:00 18,2 13,4 0 0 N 1019,1 -
30.05.2020 02:00:00 17,9 14,9 0 0 N 1019,2 0,0
30.05.2020 01:00:00 17,7 12,5 0 0 N 1019,6 -
30.05.2020 00:00:00 18,1 12,3 0 0 N 1019,6 -
29.05.2020 23:00:00 18,6 12,1 0 0 N 1019,5 -
29.05.2020 22:00:00 19,5 12,5 0 0 N 1019,2 -
29.05.2020 21:00:00 21,2 13,5 0 0 N 1018,9 -
29.05.2020 20:00:00 22,0 13,5 0 0 N 1018,5 0,0
29.05.2020 19:00:00 23,0 13,4 0 0 N 1018,6 -
29.05.2020 18:00:00 23,2 13,0 0 0 N 1018,8 -
29.05.2020 17:00:00 23,3 12,6 0 0 N 1019,2 -
29.05.2020 16:00:00 23,1 14,6 0 0 N 1019,8 -
29.05.2020 15:00:00 22,4 13,6 0 0 N 1020,7 -
29.05.2020 14:00:00 23,5 13,3 0 0 N 1021,1 0,0
29.05.2020 13:00:00 23,6 13,1 0 0 N 1021,5 -
29.05.2020 12:00:00 23,6 13,7 0 0 N 1022,1 -
29.05.2020 11:00:00 22,6 13,6 0 0 N 1022,4 -
29.05.2020 10:00:00 21,5 12,6 0 0 N 1022,2 -
29.05.2020 09:00:00 19,2 13,1 0 0 N 1022,4 -
29.05.2020 08:00:00 17,2 15,5 0 0 N 1022,7 0,0
29.05.2020 07:00:00 17,1 16,2 0 0 N 1022,4 -
29.05.2020 06:00:00 17,6 15,5 0 0 N 1022,1 -
29.05.2020 05:00:00 18,6 14,6 0 0 N 1021,4 -
29.05.2020 04:00:00 18,8 14,2 0 0 N 1021,3 -
29.05.2020 03:00:00 19,2 15,6 0 0 N 1020,9 -
29.05.2020 02:00:00 19,3 15,3 0 0 N 1021,1 0,0
29.05.2020 01:00:00 20,2 14,5 0 0 N 1020,8 -
29.05.2020 00:00:00 21,9 15,6 0 0 N 1019,6 -
28.05.2020 23:00:00 24,2 19,0 0 0 N 1019,8 -
28.05.2020 22:00:00 23,7 19,6 0 0 N 1019,3 -
28.05.2020 21:00:00 24,1 17,8 0 0 N 1018,9 -
28.05.2020 20:00:00 24,6 16,8 0 0 N 1019,0 0,0
28.05.2020 19:00:00 24,9 16,8 0 0 N 1019,3 -
28.05.2020 18:00:00 24,5 15,9 0 0 N 1020,0 -
28.05.2020 17:00:00 25,2 17,8 0 0 N 1020,3 -
28.05.2020 16:00:00 25,5 15,7 0 0 N 1021,0 -
28.05.2020 15:00:00 24,9 16,3 0 0 N 1021,6 -
28.05.2020 14:00:00 25,0 17,1 0 0 N 1022,3 0,0
28.05.2020 13:00:00 24,5 16,2 0 0 N 1023,1 -
28.05.2020 12:00:00 24,2 16,6 0 0 N 1023,8 -
28.05.2020 11:00:00 22,6 15,4 0 0 N 1024,6 -
28.05.2020 10:00:00 21,6 16,9 0 0 N 1024,8 -
28.05.2020 09:00:00 21,0 16,1 0 0 N 1025,3 -
28.05.2020 08:00:00 20,3 14,8 0 0 N 1025,5 0,0
28.05.2020 07:00:00 19,6 13,9 0 0 N 1025,8 -
28.05.2020 06:00:00 19,3 14,9 0 0 N 1025,9 -
28.05.2020 05:00:00 17,1 13,0 0 0 N 1026,0 -
28.05.2020 04:00:00 17,6 14,2 0 0 N 1026,3 -
28.05.2020 03:00:00 17,8 15,0 0 0 N 1026,7 -
28.05.2020 02:00:00 18,8 15,0 0 0 N 1027,0 0,0
28.05.2020 01:00:00 19,6 14,5 0 0 N 1027,4 -
28.05.2020 00:00:00 19,6 12,1 0 0 N 1027,3 -
27.05.2020 23:00:00 20,8 12,2 0 0 N 1027,0 -
27.05.2020 22:00:00 22,2 13,2 0 0 N 1026,6 -
27.05.2020 21:00:00 24,1 14,1 0 0 N 1026,0 -
27.05.2020 20:00:00 25,1 12,3 0 0 N 1026,2 0,0
27.05.2020 19:00:00 25,4 11,9 0 0 N 1026,2 -
27.05.2020 18:00:00 25,6 13,0 0 0 N 1026,6 -
27.05.2020 17:00:00 25,7 12,2 0 0 N 1027,0 -
27.05.2020 16:00:00 25,4 12,9 0 0 N 1027,5 -
27.05.2020 15:00:00 25,5 13,6 0 0 N 1028,0 -
27.05.2020 14:00:00 25,3 14,1 0 0 N 1028,4 0,0
27.05.2020 13:00:00 25,1 14,2 0 0 N 1029,2 -
27.05.2020 12:00:00 23,4 15,6 0 0 N 1029,7 -
27.05.2020 11:00:00 22,4 13,6 0 0 N 1030,0 -
27.05.2020 10:00:00 21,3 13,6 0 0 N 1030,4 -
27.05.2020 09:00:00 20,6 14,2 0 0 N 1030,4 -
27.05.2020 08:00:00 19,9 14,8 0 0 N 1030,4 0,0
27.05.2020 07:00:00 18,9 15,3 0 0 N 1029,9 -
27.05.2020 06:00:00 16,6 13,4 0 0 N 1029,7 -
27.05.2020 05:00:00 17,1 12,8 0 0 N 1029,6 -
27.05.2020 04:00:00 17,3 12,2 0 0 N 1029,4 -
27.05.2020 03:00:00 19,8 14,7 0 0 N 1029,3 -
27.05.2020 02:00:00 20,1 13,5 0 0 N 1029,2 0,0
27.05.2020 01:00:00 21,2 16,3 0 0 N 1028,9 -
27.05.2020 00:00:00 19,7 12,4 0 0 N 1028,8 -
26.05.2020 23:00:00 21,4 13,0 0 0 N 1028,1 -
26.05.2020 22:00:00 22,1 14,1 0 0 N 1027,4 -
26.05.2020 21:00:00 24,1 12,9 0 0 N 1026,2 -
26.05.2020 20:00:00 24,8 13,6 0 0 N 1025,5 0,0
26.05.2020 19:00:00 24,9 13,7 0 0 N 1024,8 -
26.05.2020 18:00:00 25,5 13,9 0 0 N 1024,7 -
26.05.2020 17:00:00 25,3 14,4 0 0 N 1024,9 -
26.05.2020 16:00:00 24,7 17,1 0 0 N 1025,3 -
26.05.2020 15:00:00 24,8 16,7 0 0 N 1025,7 -
26.05.2020 14:00:00 24,6 16,2 0 0 N 1026,2 0,0
26.05.2020 13:00:00 24,2 16,6 0 0 N 1026,8 -
26.05.2020 12:00:00 24,3 17,2 0 0 N 1027,0 -
26.05.2020 11:00:00 23,5 15,7 0 0 N 1027,3 -
26.05.2020 10:00:00 24,0 16,9 0 0 N 1027,3 -
26.05.2020 09:00:00 22,7 16,6 0 0 N 1027,4 -
26.05.2020 08:00:00 21,7 16,1 0 0 N 1027,3 0,0
26.05.2020 07:00:00 19,7 15,3 0 0 N 1027,0 -
26.05.2020 06:00:00 19,2 14,8 0 0 N 1026,6 -
26.05.2020 05:00:00 20,2 16,2 0 0 N 1025,9 -
26.05.2020 04:00:00 20,5 14,5 0 0 N 1025,5 -
26.05.2020 03:00:00 23,7 12,6 0 0 N 1024,7 -
26.05.2020 02:00:00 23,8 14,4 0 0 N 1024,1 0,0
26.05.2020 01:00:00 24,2 12,8 0 0 N 1024,1 -
26.05.2020 00:00:00 23,6 19,1 0 0 N 1023,5 -
25.05.2020 23:00:00 23,5 17,6 0 0 N 1023,0 -
25.05.2020 22:00:00 23,7 15,1 0 0 N 1022,3 -
25.05.2020 21:00:00 25,2 14,3 0 0 N 1021,6 -
25.05.2020 20:00:00 26,1 14,2 0 0 N 1021,5 0,0
25.05.2020 19:00:00 26,4 13,8 0 0 N 1021,5 -
25.05.2020 18:00:00 26,6 12,9 0 0 N 1022,0 -
25.05.2020 17:00:00 26,8 13,5 0 0 N 1022,5 -
25.05.2020 16:00:00 26,7 13,0 0 0 N 1023,4 -
25.05.2020 15:00:00 26,4 13,4 0 0 N 1024,0 -
25.05.2020 14:00:00 25,7 14,4 0 0 N 1024,6 0,0
25.05.2020 13:00:00 25,1 12,9 0 0 N 1025,2 -
25.05.2020 12:00:00 24,3 13,1 0 0 N 1026,0 -
25.05.2020 11:00:00 23,5 15,2 0 0 N 1026,7 -
25.05.2020 10:00:00 22,5 14,3 0 0 N 1027,1 -
25.05.2020 09:00:00 21,4 13,7 0 0 N 1027,1 -
25.05.2020 08:00:00 21,3 15,1 0 0 N 1027,3 0,0
25.05.2020 07:00:00 20,0 17,0 0 0 N 1027,2 -
25.05.2020 06:00:00 16,7 14,6 0 0 N 1027,2 -
25.05.2020 05:00:00 16,6 13,1 0 0 N 1027,2 -
25.05.2020 04:00:00 17,6 13,0 0 0 N 1027,0 -
25.05.2020 03:00:00 18,2 11,9 0 0 N 1026,9 -
25.05.2020 02:00:00 18,8 11,8 0 0 N 1026,7 0,0
25.05.2020 01:00:00 19,8 12,0 0 0 N 1026,8 -
25.05.2020 00:00:00 21,8 12,3 0 0 N 1026,7 -

tt = Temperatura
td = dewpoint
ff = velocità del vento
dd = direzione del vento
ppp = reduced air pressure
rr = precipitazioni

Stazioni seguenti

WeatherPro
AMSI
MeteoEarth